Olivehurst, CA

6:44 PM PST on December 03, 2016 (GMT -0800)
Yuba County

Weather History for KMYV - December, 2012

Change the Weather History Date:

Friday, December 7, 2012

  Actual Average Record
Temperature  
Mean Temperature 48 °F -  
Max Temperature 55 °F 57 °F 69 °F (1958)
Min Temperature 39 °F 41 °F 27 °F (1959)
Degree Days  
Heating Degree Days 17    
Moisture  
Dew Point 43 °F    
Average Humidity 90    
Maximum Humidity 100    
Minimum Humidity 69    
Precipitation  
Precipitation 0.00 in - - ()
Sea Level Pressure  
Sea Level Pressure 30.11 in    
Wind  
Wind Speed 2 mph (ENE)    
Max Wind Speed 6 mph    
Max Gust Speed -    
Visibility 5 miles    
Events Fog    
Averages and records for this station are not official NWS values.
T = Trace of Precipitation, MM = Missing Value Source: NWS Daily Summary

Daily Weather History Graph

Daily Weather History Graph

Search for Another Location

Airport or City:

Trip Planner

Search our weather history database for the weather conditions in past years. The results will help you decide how hot, cold, wet, or windy it might be!

Date:

Astronomy

Dec. 07, 2012 Rise Set
Actual Time 7:12 AM PST 4:43 PM PST
Civil Twilight 6:42 AM PST 5:13 PM PST
Nautical Twilight 6:09 AM PST 5:46 PM PST
Astronomical Twilight 5:36 AM PST 6:19 PM PST
Moon 12:39 AM PST (12/7) 12:41 PM PST (12/7)
Length of Visible Light 10h 30m
Length of Day
9h 30m
Last Quarter, 37% of the Moon is Illuminated
Dec 7
Last Quarter
Dec 13
New
Dec 19
First Quarter
Dec 28
Full
Jan 4
Last Quarter

Hourly Weather History & Observations

Time (PST) Temp. Windchill Dew Point Humidity Pressure Visibility Wind Dir Wind Speed Gust Speed Precip Events Conditions
12:53 AM 50.0 °F - 44.1 °F 80% 30.12 in 10.0 mi North - - N/A   Clear
1:53 AM 46.9 °F - 44.1 °F 90% 30.12 in 10.0 mi North - - N/A   Clear
2:53 AM 46.9 °F - 42.1 °F 83% 30.13 in 10.0 mi North - - N/A   Clear
3:53 AM 46.0 °F - 41.0 °F 83% 30.11 in 10.0 mi North - - N/A   Clear
4:53 AM 45.0 °F - 39.9 °F 82% 30.11 in 10.0 mi North - - N/A   Clear
5:53 AM 46.0 °F - 39.9 °F 79% 30.11 in 10.0 mi North - - N/A   Clear
6:53 AM 44.1 °F - 39.9 °F 85% 30.12 in 10.0 mi North - - N/A   Clear
7:53 AM 45.0 °F - 41.0 °F 86% 30.14 in 10.0 mi North - - N/A   Clear
8:53 AM 48.0 °F - 41.0 °F 77% 30.15 in 10.0 mi North 5.8 mph - N/A   Clear
9:53 AM 51.1 °F - 42.1 °F 71% 30.16 in 10.0 mi Calm Calm - N/A   Clear
10:53 AM 53.1 °F - 44.1 °F 71% 30.15 in 10.0 mi Calm Calm - N/A   Clear
11:53 AM 55.0 °F - 46.0 °F 72% 30.14 in 10.0 mi SSW 3.5 mph - N/A   Clear
12:53 PM 55.9 °F - 46.0 °F 69% 30.12 in 10.0 mi SSE 4.6 mph - N/A   Clear
1:53 PM 55.9 °F - 48.9 °F 77% 30.09 in 10.0 mi SE 5.8 mph - N/A   Clear
2:53 PM 55.0 °F - 48.9 °F 80% 30.09 in 10.0 mi Calm Calm - N/A   Clear
3:53 PM 52.0 °F - 48.0 °F 86% 30.09 in 10.0 mi SE 4.6 mph - N/A   Clear
5:53 PM 50.0 °F - 48.0 °F 93% 30.09 in 9.0 mi Calm Calm - N/A   Clear
6:53 PM 46.9 °F - 46.0 °F 97% 30.09 in 8.0 mi Calm Calm - N/A   Clear
7:53 PM 46.9 °F - 46.0 °F 97% 30.11 in 6.0 mi NE 3.5 mph - N/A   Clear
8:13 PM 44.6 °F - 44.6 °F 100% 30.09 in 1.8 mi Calm Calm - N/A   Clear
8:18 PM 44.6 °F - 44.6 °F 100% 30.09 in 0.8 mi Calm Calm - N/A   Clear
8:33 PM 44.6 °F 43.1 °F 44.6 °F 100% 30.09 in 1.0 mi East 3.5 mph - N/A   Mist
8:42 PM 46.4 °F - 44.6 °F 93% 30.09 in 2.0 mi Calm Calm - N/A   Clear
8:49 PM 44.6 °F - 44.6 °F 100% 30.09 in 1.2 mi Calm Calm - N/A   Clear
8:53 PM 44.1 °F - 43.0 °F 96% 30.11 in 0.8 mi Calm Calm - N/A   Mist
9:10 PM 42.8 °F - 42.8 °F 100% 30.09 in 0.2 mi Calm Calm - N/A Fog Fog
9:36 PM 42.8 °F - 42.8 °F 100% 30.09 in 0.5 mi Calm Calm - N/A Fog Fog
9:47 PM 42.8 °F - 42.8 °F 100% 30.09 in 0.2 mi Calm Calm - N/A Fog Fog
9:53 PM 42.1 °F - 42.1 °F 100% 30.11 in 0.2 mi Calm Calm - N/A Fog Fog
10:02 PM 42.8 °F 41.1 °F 42.8 °F 100% 30.10 in 1.2 mi NNE 3.5 mph - N/A   Partly Cloudy
10:07 PM 42.8 °F 41.1 °F 42.8 °F 100% 30.10 in 0.8 mi NNE 3.5 mph - N/A   Mist
10:17 PM 44.6 °F 43.1 °F 42.8 °F 93% 30.10 in 1.5 mi NNE 3.5 mph - N/A   Clear
10:20 PM 44.6 °F - 42.8 °F 93% 30.10 in 3.0 mi Calm Calm - N/A   Clear
10:53 PM 44.1 °F - 43.0 °F 96% 30.12 in 2.5 mi Calm Calm - N/A   Clear
11:05 PM 42.8 °F - 42.8 °F 100% 30.11 in 2.5 mi Calm Calm - N/A   Partly Cloudy
11:28 PM 42.8 °F - 41.0 °F 93% 30.11 in 1.2 mi Calm Calm - N/A   Clear
11:37 PM 41.0 °F - 41.0 °F 100% 30.10 in 0.5 mi Calm Calm - N/A Fog Fog
11:53 PM 39.9 °F - 39.9 °F 100% 30.12 in 0.2 mi Calm Calm - N/A Fog Fog